Temperature
23 22 22 22 21 21 21 20 19 19 18 18 17 17 17 16 16 16 15 15 15 14 14 14 14 14 14 14 14 14 14 14 15 15 15 16 16 16 16 16 16 16 16
23 22 22 21 21 21 20 20 19 19 18 18 17 17 17 16 16 16 15 15 15 14 14 14 14 14 14 14 14 14 14 14 14 15 15 15 16 16 16 16 16 16 16
23 22 22 21 21 21 20 20 19 19 18 18 17 17 16 16 16 16 16 15 15 14 14 14 14 14 14 14 14 14 14 14 14 14 14 15 15 16 16 16 16 16 16
22 22 21 21 20 20 20 20 19 19 18 18 17 17 17 16 16 16 16 15 15 15 14 14 14 14 14 14 14 14 14 14 14 14 14 15 15 15 15 16 16 16 16
22 21 21 21 20 20 19 19 19 19 18 18 17 17 16 16 16 16 16 15 15 15 15 14 14 14 14 14 14 14 14 14 14 14 14 14 15 15 15 15 15 16 16
21 21 20 20 20 19 19 19 19 18 18 18 17 17 16 16 16 16 16 16 15 15 15 15 14 14 14 14 14 14 14 14 14 14 14 14 14 14 15 15 15 15 16
20 20 20 19 19 19 19 18 18 18 18 17 17 17 16 16 16 16 16 16 15 15 15 15 15 14 14 14 14 14 14 14 14 14 14 14 14 14 14 15 15 15 15
20 19 19 19 18 18 18 18 18 17 17 17 17 17 17 16 16 16 16 16 16 15 15 15 15 14 14 14 14 14 14 14 14 14 14 14 14 14 14 15 15 15 15
19 19 18 18 18 18 17 17 17 17 17 17 17 17 16 16 16 16 16 16 15 15 15 15 15 15 14 14 14 14 14 14 14 14 14 14 14 14 14 14 14 14 14
19 18 18 18 17 17 17 17 17 17 17 17 17 16 16 16 16 16 16 15 15 15 15 15 15 15 15 14 14 14 14 14 14 14 14 14 14 14 14 14 14 14 15
18 18 17 17 17 17 17 17 17 17 17 16 16 16 16 16 15 15 15 15 15 15 15 15 15 15 15 14 14 14 14 14 14 14 14 14 14 14 14 14 14 14 14
18 17 17 17 16 16 16 16 16 16 16 16 16 16 15 15 15 15 15 15 15 15 15 15 15 15 15 15 14 14 14 14 14 14 14 14 14 14 14 14 14 14 14
18 17 16 16 16 16 16 16 16 15 15 15 15 15 15 15 15 15 15 14 14 15 15 15 15 15 15 15 15 14 14 14 14 14 14 14 14 14 14 14 14 14 14
17 17 16 16 16 15 15 15 15 15 15 15 15 15 14 14 14 14 14 14 14 14 14 14 14 14 14 14 14 14 14 14 14 14 14 14 14 14 14 14 14 14 14
17 16 16 16 15 15 15 15 15 14 14 14 14 14 14 14 14 14 14 14 14 13 14 14 14 14 14 14 14 14 14 14 14 14 14 14 14 14 14 14 14 14 14
17 16 16 15 15 15 15 14 14 14 14 14 14 13 13 13 13 13 13 13 13 13 13 13 13 13 13 14 14 14 14 14 14 14 14 14 14 14 14 14 14 14 14
16 16 15 15 15 15 14 14 14 14 14 13 13 13 13 13 13 13 13 13 13 12 12 13 13 13 13 13 13 14 14 14 14 14 14 14 14 14 14 14 14 14 14
16 15 15 15 15 14 14 14 14 13 13 13 13 12 12 12 12 12 12 12 12 12 12 12 12 12 13 13 13 13 13 13 13 14 14 14 14 14 14 14 13 13 14
15 15 14 14 14 14 14 13 13 13 13 12 12 12 12 12 12 12 12 12 12 12 12 12 12 12 12 13 13 13 13 13 13 13 13 14 14 14 14 14 13 13 13
14 14 14 14 13 13 13 13 13 12 12 12 11 11 11 11 11 11 11 11 11 11 11 11 11 12 12 12 12 12 12 12 13 13 13 13 13 13 13 13 13 13 13
14 13 13 13 13 12 12 12 12 12 12 11 11 11 11 11 11 11 11 11 11 11 11 11 11 11 12 12 12 12 12 12 12 12 12 13 13 13 13 13 13 13 13
13 13 13 12 12 12 12 12 11 11 11 11 11 11 11 11 11 11 10 10 10 10 10 10 10 11 11 11 11 12 12 12 12 12 12 12 13 13 13 13 13 13 13
13 13 12 12 12 12 11 11 11 11 11 10 10 10 10 10 10 10 10 10 10 9 9 10 10 10 10 11 11 11 11 11 11 11 11 12 12 12 12 12 13 12 12
13 12 12 12 12 11 11 11 11 10 10 10 10 10 10 10 10 9 9 9 9 9 9 9 9 9 9 10 10 10 10 10 10 11 11 11 11 12 12 12 12 12 12
12 12 12 11 11 11 11 11 10 10 10 10 10 10 9 9 9 9 9 9 9 9 9 9 9 9 9 9 9 9 9 9 10 10 10 10 11 11 11 11 12 12 12
12 12 11 11 11 11 11 10 10 10 10 9 9 9 9 9 8 8 8 8 8 8 8 8 8 8 9 9 9 9 9 9 9 9 9 10 10 10 10 11 11 11 11
Wind_Speed
8 8 6 5 5 4 5 6 5 5 4 2 1 2 1 2 1 1 2 2 3 4 4 3 4 3 3 3 5 4 5 4 4 3 4 4 2 2 2 2 1 1 1
9 8 6 5 3 4 4 4 5 5 5 3 1 1 0 1 0 1 0 1 3 3 4 4 4 3 2 3 4 4 3 4 4 3 2 2 3 3 2 2 2 2 1
7 8 6 6 4 4 3 3 3 5 5 4 1 1 1 2 1 1 1 1 2 1 2 3 4 4 3 2 3 3 3 3 4 3 1 1 2 3 2 2 1 2 2
6 6 5 5 5 3 3 2 3 3 4 4 2 0 1 1 2 1 0 2 2 1 1 3 4 4 3 3 3 2 2 2 3 3 2 2 2 1 2 3 1 1 2
6 6 6 5 4 4 3 2 3 3 3 2 2 1 2 2 2 2 2 2 2 2 2 2 3 4 3 3 3 2 3 2 2 2 2 3 2 2 1 2 2 1 1
7 7 6 5 5 5 4 2 3 3 3 1 1 3 3 3 3 3 3 2 2 2 2 2 3 3 3 3 3 2 3 3 3 3 2 2 1 2 1 2 1 1 1
7 7 6 5 5 4 3 2 2 1 1 1 3 3 3 3 4 3 3 3 3 2 1 1 2 3 3 3 3 3 4 3 3 3 2 2 3 2 1 1 1 1 1
7 7 6 5 4 3 2 1 1 1 1 2 4 3 2 2 2 2 3 3 2 2 2 2 3 4 3 4 3 3 4 3 3 3 3 3 3 2 2 1 1 0 1
7 7 6 5 4 3 2 2 2 1 2 3 3 3 3 3 3 3 3 3 3 3 2 3 4 4 4 4 3 2 4 3 3 3 3 2 3 2 2 2 2 3 2
7 6 5 5 4 3 3 3 2 2 2 3 3 3 2 3 3 4 4 4 5 4 4 5 4 4 3 3 2 2 4 4 4 3 4 3 3 2 2 2 2 3 3
6 6 5 5 4 4 3 3 3 3 3 4 4 4 3 2 3 3 4 4 5 6 5 5 5 4 4 3 3 3 4 4 4 4 4 4 3 3 2 2 2 2 3
6 6 5 5 5 5 4 4 4 4 4 4 5 5 4 4 4 4 4 5 6 6 6 5 5 5 4 3 3 4 4 4 4 5 4 3 3 3 3 3 3 3 3
6 6 5 5 5 4 4 4 4 4 4 4 5 5 5 4 5 5 5 5 6 6 7 7 5 5 4 4 4 4 4 4 5 4 4 3 2 3 3 3 3 3 3
5 5 4 4 4 4 4 4 4 4 4 4 4 4 6 5 5 5 5 5 5 6 7 7 6 5 5 4 3 3 4 4 5 4 3 3 2 2 2 3 3 3 3
4 4 4 4 3 4 4 4 5 5 4 4 4 4 6 6 6 6 6 6 5 7 6 7 7 6 5 4 3 3 4 4 5 4 3 3 3 3 2 2 1 1 2
4 4 4 4 3 4 4 4 4 4 4 4 5 5 6 6 6 6 7 7 7 7 6 7 8 7 6 5 5 4 4 5 5 4 4 4 5 5 5 4 3 3 3
3 3 3 3 3 4 4 4 4 5 4 4 5 5 6 6 6 7 7 7 7 7 7 7 7 7 7 8 7 6 5 6 6 5 4 4 4 5 5 5 6 4 4
3 3 3 4 4 4 4 4 4 5 5 5 6 6 6 6 6 6 7 7 7 7 6 7 8 7 8 9 9 8 5 6 7 6 5 5 4 4 5 4 4 4 4
3 3 3 4 4 5 5 5 5 5 5 5 6 7 7 7 7 7 7 7 7 7 7 7 8 8 8 10 10 8 5 5 7 7 6 5 4 6 6 5 5 4 4
3 3 3 4 4 5 5 5 5 5 5 6 6 7 7 7 7 7 7 6 7 7 8 8 8 9 8 9 10 8 4 5 5 5 6 6 6 6 6 6 6 6 5
2 2 2 3 3 4 5 5 5 5 6 6 6 7 7 8 8 6 6 7 7 7 8 9 8 8 9 9 9 7 4 5 5 5 5 4 6 7 6 6 5 6 6
1 1 1 2 3 3 4 5 4 5 6 6 6 7 7 8 8 6 6 7 7 7 8 8 8 7 7 7 8 10 10 7 5 5 4 4 5 6 7 6 7 7 5
0 1 1 2 3 3 3 5 5 5 6 6 6 7 7 7 6 6 6 7 6 6 6 6 7 7 7 7 9 8 9 9 6 5 6 6 6 6 6 8 9 7 5
0 1 2 3 3 4 3 4 5 5 7 7 6 6 7 7 7 6 5 5 6 6 6 7 7 8 7 6 5 5 6 7 7 6 6 7 7 7 7 7 7 6 6
1 1 2 3 4 5 4 4 4 6 7 7 7 6 6 6 6 6 6 7 6 6 7 7 7 8 8 9 10 9 7 6 6 6 4 3 3 5 5 5 6 6 6
2 2 2 3 5 6 6 5 4 5 6 7 7 6 5 5 6 6 8 10 10 13 13 12 12 10 12 14 13 14 13 12 11 8 6 6 6 7 7 7 7 7 8
Wind_Direction
124 115 120 123 132 129 125 130 138 137 118 88 46 32 36 335 7 32 69 3 342 353 337 328 334 347 337 327 323 325 325 314 306 311 312 298 274 234 241 243 220 196 198
122 120 124 121 131 122 114 130 132 122 117 124 164 187 137 287 276 340 86 12 351 347 338 341 332 324 316 320 316 321 316 311 318 314 318 323 328 313 249 221 201 189 175
105 119 120 120 110 100 112 113 114 132 136 147 135 356 339 291 302 257 175 224 250 280 317 319 313 311 314 300 299 309 307 300 310 312 309 315 288 306 310 265 186 170 156
77 89 95 104 117 114 104 109 117 116 123 136 140 296 288 289 288 311 236 265 234 213 244 287 295 299 304 308 304 323 317 309 300 308 294 270 270 288 315 323 345 156 138
80 80 80 77 79 80 74 53 85 87 93 97 127 229 285 302 317 319 294 276 261 227 220 247 281 288 292 300 301 321 309 293 279 281 294 303 302 269 226 279 313 356 72
73 74 76 74 70 66 58 37 49 69 76 52 252 229 254 274 284 285 286 285 271 247 233 237 272 286 300 313 309 290 282 272 275 278 271 266 273 278 261 252 256 245 265
70 68 66 69 73 75 67 42 43 62 110 240 261 254 243 262 270 274 279 272 270 266 254 280 282 290 298 296 290 287 279 265 256 252 251 257 253 241 244 240 260 246 252
74 70 67 66 69 69 68 39 33 24 325 272 279 280 264 245 255 264 279 277 269 265 257 260 260 264 273 282 281 279 279 276 265 257 248 248 260 252 229 201 193 257 270
74 71 64 65 70 64 51 37 36 13 336 308 297 305 323 333 324 306 290 285 278 271 271 267 262 259 256 260 271 271 283 292 273 270 269 249 254 254 242 215 188 172 200
68 67 60 55 55 50 39 36 21 360 348 333 330 337 336 333 324 317 309 309 307 298 275 265 268 269 259 253 253 266 277 278 267 242 247 248 249 252 249 240 228 195 186
73 71 60 50 47 46 40 31 13 357 2 351 339 338 336 328 320 308 304 298 286 280 273 262 262 263 260 257 245 246 261 272 282 270 241 235 231 223 234 234 231 217 189
76 69 61 50 42 34 26 24 15 12 7 352 343 345 346 329 309 307 306 303 303 301 295 282 270 267 262 255 247 251 257 255 266 274 269 252 239 220 227 222 227 220 202
76 70 62 53 39 32 22 18 18 13 6 359 350 342 331 328 320 314 309 313 313 312 308 300 289 283 276 262 246 241 253 252 253 260 262 254 244 241 230 218 223 211 202
73 64 57 54 36 29 18 18 12 10 9 9 352 339 332 331 322 318 317 315 318 315 317 311 301 293 284 277 266 264 260 260 261 252 244 246 223 223 236 228 224 211 195
76 66 51 45 28 27 20 19 4 1 2 6 354 339 332 335 336 335 324 315 309 308 307 313 307 301 297 290 293 294 283 273 272 261 237 217 192 184 205 210 218 220 203
65 53 44 37 17 15 13 12 356 350 351 356 351 342 340 339 335 329 327 325 316 308 308 309 308 302 299 296 285 281 287 281 272 263 249 214 199 196 191 181 178 182 202
67 44 31 26 5 7 12 6 349 343 349 359 354 347 339 335 329 328 324 315 309 302 300 295 295 292 284 280 268 268 268 273 267 260 257 251 213 190 186 196 201 202 214
73 42 21 11 1 9 8 356 350 354 0 2 350 342 336 334 324 316 311 307 309 307 300 294 289 288 283 277 261 257 258 270 267 259 246 242 224 205 193 197 200 200 206
71 42 15 4 0 4 357 348 347 355 1 355 341 337 334 328 316 310 305 304 306 305 299 295 289 287 282 272 261 252 255 264 266 261 251 236 222 215 202 202 204 198 201
62 39 8 358 360 355 346 338 342 353 353 345 334 329 321 316 305 303 304 303 301 297 302 299 293 290 287 277 263 252 253 260 267 266 254 229 220 217 213 204 203 202 199
71 34 8 1 352 342 336 337 346 343 337 331 322 315 313 310 303 304 308 307 305 304 304 299 296 296 294 288 274 254 254 263 272 273 267 242 214 212 215 213 211 203 193
78 16 357 347 332 329 334 335 335 332 326 317 310 308 307 310 318 310 306 306 306 305 304 303 305 304 302 292 276 262 253 261 264 276 281 267 224 218 219 221 220 202 190
113 348 334 315 312 326 337 321 324 323 314 307 305 303 305 308 314 314 313 311 310 306 306 308 309 309 306 305 296 284 270 264 263 273 284 283 256 241 229 228 224 210 197
210 303 305 308 317 325 311 308 318 318 315 309 307 309 313 316 320 316 304 304 305 304 307 310 308 307 303 303 308 309 300 287 274 272 279 271 254 244 233 230 226 216 204
250 276 296 303 305 305 300 306 313 315 313 313 313 312 313 310 310 307 298 297 288 285 289 289 293 296 296 290 292 293 291 285 274 279 267 263 258 251 241 225 218 210 200
274 286 294 297 301 304 306 306 307 310 314 315 313 309 310 307 304 304 303 294 288 288 285 277 281 286 281 286 285 286 283 279 273 273 257 246 237 239 237 225 219 216 207
Height
1512 1515 1518 1520 1522 1523 1524 1524 1525 1525 1525 1525 1525 1525 1524 1524 1523 1522 1520 1519 1518 1517 1516 1514 1513 1512 1511 1510 1509 1508 1508 1507 1507 1506 1505 1505 1505 1505 1505 1506 1507 1508 1508
1512 1515 1518 1519 1521 1523 1523 1524 1525 1525 1525 1524 1524 1524 1524 1523 1522 1521 1520 1518 1517 1516 1515 1514 1512 1512 1510 1509 1508 1508 1507 1506 1506 1506 1505 1505 1505 1504 1504 1504 1505 1506 1506
1513 1515 1517 1519 1521 1522 1523 1524 1524 1524 1523 1524 1524 1524 1523 1522 1522 1521 1519 1518 1516 1515 1514 1513 1512 1511 1510 1509 1508 1507 1506 1505 1505 1505 1506 1505 1504 1503 1503 1503 1504 1505 1506
1514 1516 1518 1519 1520 1522 1522 1523 1523 1524 1523 1523 1522 1522 1522 1522 1521 1520 1519 1517 1516 1514 1513 1512 1511 1510 1509 1508 1507 1506 1505 1504 1504 1504 1504 1505 1504 1504 1503 1503 1503 1503 1505
1516 1517 1518 1519 1520 1521 1522 1523 1523 1523 1522 1522 1522 1521 1521 1521 1520 1519 1518 1516 1515 1513 1512 1511 1510 1509 1508 1507 1506 1505 1504 1503 1503 1502 1502 1503 1503 1503 1503 1502 1502 1503 1504
1517 1518 1519 1520 1520 1521 1521 1522 1522 1522 1521 1521 1521 1520 1520 1519 1519 1518 1517 1515 1514 1513 1511 1510 1509 1508 1507 1506 1504 1503 1503 1502 1501 1501 1501 1501 1501 1501 1501 1501 1501 1502 1503
1518 1518 1519 1519 1520 1520 1520 1521 1521 1521 1520 1520 1520 1520 1519 1518 1517 1516 1515 1514 1513 1512 1510 1509 1508 1506 1505 1504 1503 1502 1501 1501 1500 1499 1499 1499 1500 1500 1500 1500 1500 1500 1501
1519 1519 1520 1520 1520 1520 1520 1520 1520 1520 1519 1519 1519 1518 1518 1517 1516 1515 1514 1513 1512 1511 1509 1507 1506 1505 1503 1502 1501 1500 1500 1499 1499 1498 1498 1498 1498 1498 1499 1499 1499 1499 1500
1520 1520 1521 1521 1520 1520 1520 1520 1519 1519 1518 1518 1517 1517 1516 1515 1514 1513 1512 1511 1510 1509 1507 1506 1504 1503 1502 1501 1500 1499 1498 1498 1497 1497 1496 1496 1496 1496 1497 1497 1498 1499 1499
1520 1521 1521 1521 1521 1520 1520 1519 1519 1518 1517 1517 1516 1515 1514 1513 1512 1511 1510 1509 1508 1507 1505 1504 1503 1502 1501 1499 1498 1497 1496 1496 1495 1495 1494 1494 1494 1494 1494 1495 1495 1496 1497
1521 1521 1521 1521 1521 1520 1519 1518 1518 1517 1516 1515 1514 1513 1512 1511 1510 1509 1508 1507 1505 1505 1503 1502 1501 1500 1499 1498 1497 1496 1495 1494 1493 1493 1493 1492 1492 1492 1492 1492 1493 1494 1495
1521 1522 1521 1521 1520 1519 1518 1518 1517 1516 1515 1514 1513 1512 1511 1509 1508 1507 1506 1504 1503 1502 1501 1500 1499 1498 1497 1496 1494 1493 1493 1492 1492 1491 1491 1490 1490 1490 1490 1490 1491 1491 1492
1521 1521 1521 1520 1519 1519 1518 1517 1516 1515 1514 1512 1511 1510 1509 1508 1507 1505 1504 1502 1501 1499 1498 1497 1496 1495 1494 1493 1492 1491 1490 1490 1489 1489 1488 1488 1488 1488 1488 1488 1488 1489 1490
1521 1521 1520 1520 1519 1519 1518 1516 1515 1514 1513 1511 1510 1508 1507 1506 1504 1503 1501 1500 1498 1496 1495 1494 1493 1492 1491 1490 1489 1489 1488 1487 1487 1486 1486 1485 1485 1485 1485 1485 1486 1486 1487
1520 1520 1520 1519 1519 1518 1517 1516 1514 1513 1512 1510 1508 1507 1505 1504 1502 1500 1499 1497 1495 1494 1492 1490 1489 1488 1487 1487 1486 1485 1484 1484 1484 1483 1483 1483 1482 1482 1482 1483 1483 1483 1484
1519 1519 1519 1519 1518 1517 1516 1514 1513 1512 1510 1509 1507 1505 1503 1501 1499 1497 1496 1494 1492 1490 1489 1487 1485 1484 1483 1483 1482 1482 1481 1480 1480 1480 1480 1480 1479 1479 1479 1479 1480 1480 1481
1518 1518 1518 1517 1517 1516 1514 1513 1511 1510 1509 1507 1505 1503 1501 1499 1496 1495 1493 1490 1489 1487 1485 1483 1482 1480 1480 1479 1478 1478 1477 1476 1476 1476 1476 1476 1476 1476 1476 1476 1476 1477 1478
1516 1516 1516 1516 1515 1514 1513 1511 1510 1509 1507 1505 1503 1501 1498 1496 1494 1492 1489 1487 1486 1484 1481 1480 1478 1476 1475 1475 1474 1473 1473 1472 1471 1471 1471 1472 1472 1472 1472 1472 1473 1473 1474
1514 1514 1514 1514 1513 1512 1511 1509 1508 1506 1505 1503 1500 1498 1496 1493 1491 1488 1486 1484 1482 1480 1478 1476 1474 1472 1470 1470 1469 1469 1468 1467 1466 1466 1467 1467 1467 1468 1468 1469 1469 1469 1470
1512 1512 1512 1511 1510 1509 1508 1507 1506 1504 1502 1500 1498 1495 1493 1491 1488 1486 1483 1481 1479 1476 1474 1472 1470 1468 1466 1465 1465 1464 1463 1462 1461 1461 1461 1462 1462 1463 1463 1464 1464 1465 1466
1509 1509 1509 1508 1508 1507 1506 1504 1503 1501 1499 1497 1495 1493 1490 1488 1485 1483 1480 1478 1475 1472 1470 1467 1466 1464 1462 1460 1460 1459 1458 1457 1457 1456 1456 1456 1457 1457 1458 1459 1459 1460 1462
1507 1507 1506 1506 1505 1504 1503 1502 1500 1498 1496 1494 1492 1489 1487 1485 1482 1479 1477 1474 1471 1469 1466 1463 1461 1459 1458 1456 1455 1454 1453 1453 1452 1451 1451 1451 1451 1451 1452 1453 1454 1456 1457
1504 1504 1504 1503 1502 1501 1500 1499 1497 1495 1493 1491 1488 1486 1484 1481 1479 1476 1473 1470 1468 1465 1462 1460 1457 1455 1453 1451 1450 1449 1448 1447 1447 1445 1445 1445 1444 1445 1445 1446 1448 1450 1452
1501 1501 1501 1500 1499 1498 1497 1495 1494 1492 1490 1487 1485 1483 1480 1477 1475 1472 1469 1467 1464 1461 1459 1456 1453 1450 1448 1446 1445 1443 1442 1441 1440 1440 1439 1438 1438 1438 1439 1440 1441 1443 1445
1499 1498 1498 1497 1496 1495 1493 1492 1490 1488 1486 1484 1481 1479 1476 1473 1470 1468 1466 1463 1460 1458 1455 1452 1449 1446 1443 1441 1440 1438 1436 1435 1434 1434 1433 1432 1431 1431 1432 1433 1434 1437 1439
1496 1495 1494 1493 1492 1491 1489 1488 1486 1484 1482 1479 1477 1475 1472 1469 1466 1463 1460 1457 1456 1453 1451 1448 1446 1442 1440 1437 1434 1432 1431 1429 1429 1428 1426 1425 1425 1425 1426 1426 1428 1430 1432